User: anonymous   Login
Location: Lanoux
(43.1180°N, 1.4255°E)
Time: 22:37:18
(UTC+00:00)
Language:

NANOSAT C BR1 - Orbit

View from above orbital plane
View from above orbital plane
View from above satellite
View from above satellite

Ground track
Ground track

The orbit is defined by the following mean orbital elements,

1 40024U          26108.31696122 +.00000000 +00000-0 +38026-3 0 00002
2 40024  98.0776 135.4770 0004548  56.4057 303.7615 15.29558904    07
Epoch (UTC): 18 April 2026 07:36:25
Eccentricity: 0.0004548
inclination: 98.0776°
perigee height: 474 km
apogee height: 480 km
right ascension of ascending node: 135.4770°
argument of perigee: 56.4057°
revolutions per day: 15.29558904
mean anomaly at epoch: 303.7615°

The dashed part of the orbit path shows where the satellite is in the earth's shadow,  

DLR